Back to catalog

NOAA 16 DEB

AliveSSO
NORAD 42398·DEBRIS·🇺🇸 United States

Launched Sep 21, 2000 from Vandenberg Space Force Base

Loading…

Next Passes (next 24 hours)

TLE

FreshSource: Space-Track

Epoch: Sep 13, 2026, 05:49 UTC

1 42398U 00055SS  26256.24263799  .00001634  00000-0  82224-3 0  9994
2 42398  98.6585 259.1938 0030130 341.1200  18.8855 14.17564330541610

Track NOAA 16 DEB in real time with AllMySat

Download on the App Store